sat.trackr.live / text

‹ back to catalog

STARLINK-37124

NORAD 68283 · 2026-055X

PAYLOAD ACTIVE UNKNOWN

§ Identity

Operator
Country
US
Launch date
2026-03-19
Launch site
AFETR
Launch vehicle
Mass (kg)
RCS (m²)

Purposes: comms

External: N2YO · Heavens-Above · Gunter

§ Orbital elements

Epoch: 2026-09-20T03:51:45.631584Z

Period
93.85 min
Inclination
53.1576°
Eccentricity
0.0001203
Mean motion
15.34406575 rev/d
Perigee alt
461.9 km
Apogee alt
463.5 km
Semi-major
6,840.8 km
B*
5.3460e-4
RAAN
133.2496°
Arg perigee
102.4695°
Mean anomaly
257.6442°
Rev number
2,974

§ Raw data

STARLINK-371241 68283U 26055X   26263.16094481  .00017733  00000+0  53460-3 0  99982 68283  53.1576 133.2496 0001203 102.4695 257.6442 15.34406575 29749

JSON: /api/v1/satellites/68283 · /tle

For live sub-satellite position, see the globe view (requires WebGL).

§ Visibility from observer

Set your observer location to see the next 7 days of passes ≥ 10°. The values pass through the URL so the page stays shareable.

No JS? Fill the form by hand. The geolocation button needs JavaScript.